OneWeb SL0362

operational
NORAD ID: 49288 Int'l Des: 2021-090 Owner: ONEWEBN Country: UK Constellation: oneweb
LEOCIRCULARPOLARONEWEB_TYPE

About OneWeb SL0362

Description loading...

Live Position

Loading 3D Globe...

Upcoming Passes

Altitude History

Altitude vs Time

uPlot chart will show altitude changes over time

Two-Line Element Set

1 49288U 21090K 25351.21693311 .00000043 00000-0 75368-4 0 9995
2 49288 87.9191 341.1924 0001662 79.6395 280.4925 13.19725456202913
Epoch: Dec 17, 2025 • Age: 8 hours

Current Status

Altitude 1188.4 km
Velocity 7.26 km/s
Sub-Earth Point 4.34°N, 126.03°W
Launch Date Oct 14, 2021
Age 4.1 years
Type internet

Technical Details

Classification Payload
Mass 148.00 kg
Dry Mass 140.00 kg
Total Mass 148.00 kg
Length 1.30 m
Diameter 1.00 m
Span 5.00 m
Shape Trapezoid+2 pan
Manufacturer ONEWUS
Bus Type ARROW
Phase Status In Orbit
Owner/State ONEWEBN/UK

Large Constellations

Loading constellations...